Weather History for Marysville, OH

Change the Weather History Date:

Friday, April 18, 2014

  Actual Average (KDLZ) Record (KDLZ)
Temperature  
Mean Temperature 52 °F -  
Max Temperature 67 °F 62 °F 86 °F (1958)
Min Temperature 36 °F 38 °F 25 °F (1990)
Degree Days  
Heating Degree Days 14    
Growing Degree Days 2 (Base 50)    
Moisture  
Dew Point 35 °F    
Average Humidity 55    
Maximum Humidity 84    
Minimum Humidity 28    
Precipitation  
Precipitation 0.00 in - - ()
Sea Level Pressure  
Sea Level Pressure 30.26 in    
Wind  
Wind Speed 2 mph (NW)    
Max Wind Speed 10 mph    
Max Gust Speed -    
Visibility 10 miles    
Events      
Averages and records for this station are not official NWS values.
T = Trace of Precipitation, MM = Missing Value Source: NWS Daily Summary

Daily Weather History Graph

Daily Weather History Graph

Search for Another Location

Airport:

Trip Planner

Search our weather history database for the weather conditions in past years. The results will help you decide how hot, cold, wet, or windy it might be!

Date:

Astronomy

Apr. 18, 2014 Rise Set
Actual Time 6:50 AM EDT 8:15 PM EDT
Civil Twilight 6:22 AM EDT 8:43 PM EDT
Nautical Twilight 5:48 AM EDT 9:17 PM EDT
Astronomical Twilight 5:12 AM EDT 9:53 PM EDT
Moon 11:59 PM EDT (4/18) 9:11 AM EDT (4/18)
Length of Visible Light 14h 21m
Length of Day
13h 24m
Waning Gibbous, 87% of the Moon is Illuminated
Apr 18
Waning Gibbous
Apr 22
Last Quarter
Apr 29
New
May 6
First Quarter
May 14
Full

Hourly Weather History & Observations

Time (EDT) Temp. Windchill Dew Point Humidity Pressure Visibility Wind Dir Wind Speed Gust Speed Precip Events Conditions
12:14 AM 42.4 °F - 35.1 °F 75% 30.28 in 10.0 mi Calm Calm - N/A   Clear
12:33 AM 42.1 °F - 34.3 °F 74% 30.28 in 10.0 mi Calm Calm - N/A   Clear
12:54 AM 41.2 °F - 33.8 °F 75% 30.28 in 10.0 mi Calm Calm - N/A   Clear
1:14 AM 41.9 °F - 34.2 °F 74% 30.28 in 10.0 mi Calm Calm - N/A   Clear
1:33 AM 41.2 °F - 34.3 °F 77% 30.27 in 10.0 mi Calm Calm - N/A   Clear
1:54 AM 41.4 °F 39.4 °F 34.7 °F 77% 30.26 in 10.0 mi SW 3.5 mph - N/A   Clear
2:14 AM 40.6 °F - 33.3 °F 75% 30.26 in 10.0 mi Calm Calm - N/A   Clear
2:33 AM 41.5 °F - 33.3 °F 72% 30.26 in 10.0 mi Calm Calm - N/A   Clear
2:54 AM 39.4 °F - 33.4 °F 79% 30.25 in 10.0 mi Calm Calm - N/A   Clear
3:14 AM 39.4 °F - 33.3 °F 79% 30.25 in 10.0 mi Calm Calm - N/A   Clear
3:33 AM 37.6 °F - 32.9 °F 83% 30.25 in 10.0 mi Calm Calm - N/A   Clear
3:54 AM 40.1 °F - 34.0 °F 79% 30.25 in 10.0 mi Calm Calm - N/A   Clear
4:14 AM 38.1 °F 35.7 °F 32.4 °F 80% 30.25 in 10.0 mi West 3.5 mph - N/A   Clear
4:33 AM 36.9 °F - 32.5 °F 84% 30.26 in 10.0 mi Calm Calm - N/A   Clear
4:54 AM 39.7 °F - 33.3 °F 78% 30.26 in 10.0 mi Calm Calm - N/A   Clear
5:14 AM 40.8 °F - 32.5 °F 72% 30.26 in 10.0 mi Calm Calm - N/A   Clear
5:34 AM 38.7 °F - 32.5 °F 79% 30.27 in 10.0 mi Calm Calm - N/A   Clear
5:54 AM 39.4 °F - 32.7 °F 77% 30.27 in 10.0 mi Calm Calm - N/A   Clear
6:14 AM 39.9 °F - 33.1 °F 77% 30.27 in 10.0 mi Calm Calm - N/A   Clear
6:34 AM 41.0 °F - 32.0 °F 70% 30.27 in 10.0 mi Calm Calm - N/A   Clear
6:54 AM 37.8 °F - 32.4 °F 81% 30.28 in 10.0 mi Calm Calm - N/A   Clear
7:14 AM 38.5 °F - 33.6 °F 83% 30.28 in 10.0 mi Calm Calm - N/A   Clear
7:34 AM 39.4 °F - 34.0 °F 81% 30.28 in 10.0 mi Calm Calm - N/A   Clear
7:54 AM 40.3 °F - 35.2 °F 82% 30.29 in 10.0 mi Calm Calm - N/A   Clear
8:14 AM 42.3 °F - 36.1 °F 79% 30.29 in 10.0 mi Calm Calm - N/A   Clear
8:34 AM 44.2 °F - 37.2 °F 76% 30.29 in 10.0 mi Calm Calm - N/A   Clear
8:54 AM 45.3 °F - 37.9 °F 75% 30.30 in 10.0 mi Calm Calm - N/A   Clear
9:14 AM 47.8 °F - 38.3 °F 70% 30.30 in 10.0 mi Calm Calm - N/A   Clear
9:34 AM 50.4 °F - 38.8 °F 65% 30.30 in 10.0 mi Calm Calm - N/A   Clear
9:54 AM 53.4 °F - 39.7 °F 60% 30.30 in 10.0 mi Calm Calm - N/A   Clear
10:14 AM 56.1 °F - 39.4 °F 53% 30.30 in 10.0 mi Calm Calm - N/A   Clear
10:34 AM 57.9 °F - 35.4 °F 43% 30.30 in 10.0 mi Calm Calm - N/A   Clear
10:54 AM 58.8 °F - 34.3 °F 40% 30.29 in 10.0 mi Calm Calm - N/A   Clear
11:14 AM 59.2 °F - 34.0 °F 39% 30.29 in 10.0 mi Calm Calm - N/A   Clear
11:34 AM 60.1 °F - 32.7 °F 36% 30.29 in 10.0 mi Calm Calm - N/A   Clear
11:54 AM 61.7 °F - 35.6 °F 38% 30.29 in 10.0 mi Calm Calm - N/A   Clear
12:14 PM 62.4 °F - 33.3 °F 34% 30.29 in 10.0 mi Calm Calm - N/A   Clear
12:34 PM 63.5 °F - 34.0 °F 33% 30.29 in 10.0 mi West 5.8 mph - N/A   Clear
12:54 PM 63.7 °F - 33.4 °F 32% 30.28 in 10.0 mi WSW 9.2 mph - N/A   Clear
1:14 PM 64.6 °F - 35.2 °F 34% 30.27 in 10.0 mi NW 5.8 mph - N/A   Clear
1:34 PM 65.8 °F - 35.1 °F 32% 30.27 in 10.0 mi WNW 10.4 mph - N/A   Scattered Clouds
1:54 PM 66.4 °F - 34.7 °F 31% 30.27 in 10.0 mi West 10.4 mph - N/A   Clear
2:14 PM 66.0 °F - 34.2 °F 31% 30.27 in 10.0 mi NNW 9.2 mph - N/A   Scattered Clouds
2:34 PM 66.4 °F - 36.0 °F 33% 30.27 in 10.0 mi WNW 6.9 mph - N/A   Scattered Clouds
2:54 PM 65.1 °F - 34.5 °F 32% 30.26 in 10.0 mi NW 5.8 mph - N/A   Scattered Clouds
3:14 PM 65.7 °F - 33.1 °F 30% 30.26 in 10.0 mi West 4.6 mph - N/A   Scattered Clouds
3:34 PM 67.3 °F - 33.3 °F 28% 30.25 in 10.0 mi Calm Calm - N/A   Mostly Cloudy
3:54 PM 65.5 °F - 32.7 °F 30% 30.25 in 10.0 mi WSW 4.6 mph - N/A   Overcast
4:14 PM 64.8 °F - 33.6 °F 31% 30.24 in 10.0 mi WNW 8.1 mph - N/A   Overcast
4:34 PM 64.9 °F - 34.0 °F 32% 30.24 in 10.0 mi NW 6.9 mph - N/A   Overcast
4:54 PM 65.7 °F - 35.1 °F 32% 30.23 in 10.0 mi NW 8.1 mph - N/A   Overcast
5:14 PM 64.8 °F - 34.5 °F 33% 30.23 in 10.0 mi WNW 9.2 mph - N/A   Overcast
5:34 PM 64.8 °F - 34.9 °F 33% 30.23 in 10.0 mi WNW 6.9 mph - N/A   Overcast
5:54 PM 65.3 °F - 35.1 °F 33% 30.22 in 10.0 mi WNW 6.9 mph - N/A   Overcast
6:14 PM 66.4 °F - 36.1 °F 33% 30.22 in 10.0 mi NW 6.9 mph - N/A   Mostly Cloudy
6:34 PM 65.7 °F - 35.1 °F 32% 30.22 in 10.0 mi West 6.9 mph - N/A   Scattered Clouds
6:54 PM 65.3 °F - 35.2 °F 33% 30.21 in 10.0 mi West 5.8 mph - N/A   Clear
7:14 PM 64.4 °F - 35.4 °F 34% 30.21 in 10.0 mi NNW 5.8 mph - N/A   Scattered Clouds
7:34 PM 63.5 °F - 33.8 °F 33% 30.21 in 10.0 mi NNW 5.8 mph - N/A   Scattered Clouds
7:54 PM 62.4 °F - 35.4 °F 37% 30.21 in 10.0 mi NNE 3.5 mph - N/A   Scattered Clouds
8:14 PM 61.5 °F - 35.1 °F 37% 30.21 in 10.0 mi NNW 3.5 mph - N/A   Scattered Clouds
8:34 PM 61.0 °F - 34.9 °F 38% 30.21 in 10.0 mi NNW 3.5 mph - N/A   Clear
8:54 PM 60.1 °F - 35.1 °F 39% 30.22 in 10.0 mi NNW 3.5 mph - N/A   Clear
9:14 PM 55.0 °F - 37.2 °F 51% 30.22 in 10.0 mi Calm Calm - N/A   Clear
9:34 PM 49.5 °F - 39.4 °F 68% 30.23 in 10.0 mi Calm Calm - N/A   Clear
9:54 PM 50.9 °F - 38.5 °F 62% 30.23 in 10.0 mi Calm Calm - N/A   Clear
10:14 PM 48.0 °F - 39.9 °F 74% 30.24 in 10.0 mi Calm Calm - N/A   Clear
10:34 PM 52.3 °F - 37.6 °F 57% 30.24 in 10.0 mi NNW 3.5 mph - N/A   Clear
11:14 PM 54.5 °F - 36.9 °F 51% 30.24 in 10.0 mi North 4.6 mph - N/A   Clear
11:34 PM 54.5 °F - 36.7 °F 51% 30.25 in 10.0 mi Calm Calm - N/A   Clear
11:54 PM 53.1 °F - 36.9 °F 54% 30.25 in 10.0 mi North 3.5 mph - N/A   Clear